Location: Tyumen
(57.1527°N, 65.5323°E)
Time: 07:11:14
(UTC+05:00)

ISS - Pass Details

Date: 07 December 2021
Orbit: 413 x 422 km, 51.6° (Epoch: 27 January)

Event Time Altitude Azimuth Distance (km) Brightness Sun altitude
Rises 17:56:30 0° 269° (W) 2,389 1.6 -14.6°
Reaches altitude 10° 17:59:42 10° 237° (WSW) 1,517 0.3 -15.0°
Maximum altitude 18:01:02 12° 214° (SSW) 1,403 -0.3 -15.2°
Drops below altitude 10° 18:02:22 10° 190° (S) 1,511 -0.6 -15.4°
Enters shadow 18:07:20 -5° 149° (SSE) 3,007 0.5 -16.0°
